This is the latest recevied weather packets stored in our database for station/object OE3BCB-14. If no packets are shown the sender has not sent any weather packets the latest 10 day(s).
| Time | Temp. | Humidity | Pressure | Rain* | Wind** | Luminosity | Snow |
|---|---|---|---|---|---|---|---|
| 1778065894 | 36.11° C | 24% | 1007.7 hPa | - | - | 89 W/m² | - |
| 1778065592 | 36.11° C | 24% | 1007.8 hPa | - | - | 85 W/m² | - |
| 1778065290 | 36.11° C | 25% | 1008 hPa | - | - | 86 W/m² | - |
| 1778064685 | 35° C | 26% | 1008.1 hPa | - | - | 93 W/m² | - |
| 1778064382 | 36.11° C | 26% | 1008.2 hPa | - | - | 113 W/m² | - |
| 1778064080 | 35.56° C | 26% | 1008.2 hPa | - | - | 104 W/m² | - |
| 1778063777 | 35.56° C | 26% | 1008.3 hPa | - | - | 102 W/m² | - |
| 1778063475 | 35° C | 26% | 1008.5 hPa | - | - | 109 W/m² | - |
| 1778063173 | 36.11° C | 26% | 1008.5 hPa | - | - | 105 W/m² | - |
| 1778061963 | 35° C | 28% | 1008.9 hPa | - | - | 148 W/m² | - |
| 1778061661 | 33.33° C | 29% | 1008.9 hPa | - | - | 201 W/m² | - |
| 1778061358 | 31.67° C | 30% | 1008.8 hPa | - | - | 270 W/m² | - |
| 1778061056 | 33.89° C | 29% | 1008.9 hPa | - | - | 174 W/m² | - |
| 1778060451 | 33.89° C | 30% | 1009.1 hPa | - | - | 356 W/m² | - |
| 1778060149 | 31.67° C | 30% | 1009.1 hPa | - | - | 107 W/m² | - |
| 1778059846 | 34.44° C | 29% | 1009.2 hPa | - | - | 143 W/m² | - |
| 1778059241 | 34.44° C | 32% | 1009.4 hPa | - | - | 396 W/m² | - |
| 1778058939 | 34.44° C | 32% | 1009.4 hPa | - | - | 430 W/m² | - |
| 1778058636 | 33.33° C | 32% | 1009.5 hPa | - | - | 167 W/m² | - |
| 1778058334 | 33.33° C | 34% | 1009.6 hPa | - | - | 282 W/m² | - |
| 1778058032 | 33.33° C | 34% | 1009.6 hPa | - | - | 307 W/m² | - |
| 1778057729 | 33.33° C | 35% | 1009.8 hPa | - | - | 431 W/m² | - |
| 1778057427 | 32.22° C | 37% | 1009.7 hPa | - | - | 431 W/m² | - |
| 1778057124 | 30.56° C | 38% | 1009.6 hPa | - | - | 339 W/m² | - |
| 1778056822 | 28.89° C | 38% | 1009.7 hPa | - | - | 282 W/m² | - |
* Rain since midnight (hover to see other rain measurements)
** Current wind speed in m/s (hover to see current wind gust speed)